GW3433 Weather Reports


Display with metric or nautical units.
time (UTC)temp
F
wind
direction
speed
MPH
gust
MPH
rain 1hr
in
rain 24hr
in
rain mn
in
humidity
%
barometer
mb
20260510215515 71 181 2.0 12.0 0.00 0.11 0.10 27
20260510214515 71 181 7.0 12.0 0.00 0.11 0.10 26
20260510213515 70 181 3.0 8.0 0.00 0.11 0.10 28
20260510212515 70 181 6.0 11.0 0.00 0.11 0.10 27
20260510211535 71 181 6.0 11.0 0.00 0.11 0.10 27
20260510210516 70 181 3.0 8.0 0.00 0.11 0.10 28
20260510205515 70 181 7.0 13.0 0.00 0.11 0.10 28
20260510204515 71 181 5.0 9.0 0.00 0.11 0.10 28
20260510203515 70 181 2.0 8.0 0.00 0.11 0.10 30
20260510202536 70 181 4.0 10.0 0.00 0.11 0.10 30
20260510201515 69 181 7.0 15.0 0.00 0.11 0.10 29
20260510200515 69 181 8.0 19.0 0.00 0.11 0.10 29
20260510195516 68 181 3.0 10.0 0.00 0.11 0.10 30
20260510194516 68 181 9.0 17.0 0.00 0.11 0.10 30
20260510193515 68 181 7.0 15.0 0.00 0.11 0.10 31
20260510192515 67 181 10.0 19.0 0.00 0.11 0.10 30
20260510191515 68 181 7.0 14.0 0.00 0.11 0.10 31
20260510190556 67 181 7.0 15.0 0.00 0.11 0.10 34
20260510185515 66 181 8.0 15.0 0.00 0.11 0.10 35
20260510184516 65 181 6.0 13.0 0.00 0.11 0.10 35
20260510183515 64 181 8.0 15.0 0.00 0.11 0.10 36
20260510182515 65 181 8.0 13.0 0.00 0.11 0.10 37
20260510181515 65 181 7.0 13.0 0.00 0.11 0.10 37
20260510180515 64 181 5.0 11.0 0.00 0.11 0.10 40
20260510175515 64 181 8.0 15.0 0.00 0.11 0.10 39
20260510174517 65 181 9.0 15.0 0.00 0.11 0.10 38
20260510173516 63 181 9.0 15.0 0.00 0.11 0.10 42
20260510172515 63 181 9.0 16.0 0.00 0.11 0.10 43
20260510171516 62 181 7.0 11.0 0.00 0.11 0.10 47
20260510170515 61 181 8.0 16.0 0.00 0.11 0.10 49
20260510165515 60 181 7.0 13.0 0.00 0.11 0.10 53
20260510164515 59 181 7.0 14.0 0.00 0.11 0.10 56
20260510163536 59 181 8.0 15.0 0.00 0.11 0.10 57
20260510162515 59 181 7.0 12.0 0.01 0.11 0.10 60
20260510161516 57 181 7.0 11.0 0.01 0.11 0.10 66
20260510160515 55 181 5.0 9.0 0.01 0.11 0.10 69
20260510155515 53 181 4.0 10.0 0.01 0.11 0.10 79
20260510154516 52 181 6.0 11.0 0.01 0.11 0.10 82
20260510153515 52 181 6.0 9.0 0.01 0.11 0.10 83
20260510152515 52 181 3.0 7.0 0.00 0.10 0.09 81
20260510151515 52 181 1.0 5.0 0.00 0.10 0.09 84
20260510150535 51 181 6.0 9.0 0.00 0.10 0.09 84
20260510145516 51 181 5.0 7.0 0.00 0.10 0.09 85
20260510144535 51 181 5.0 8.0 0.00 0.10 0.09 84
20260510143536 51 181 6.0 10.0 0.00 0.10 0.09 85
20260510142516 50 181 7.0 11.0 0.00 0.10 0.09 87
20260510141516 50 181 6.0 9.0 0.01 0.10 0.09 88
20260510140515 49 181 7.0 10.0 0.01 0.10 0.09 89
20260510135515 49 181 6.0 8.0 0.01 0.10 0.09 88
20260510134515 50 181 5.0 7.0 0.01 0.10 0.09 88
20260510133515 50 181 9.0 13.0 0.01 0.10 0.09 88
20260510132515 50 181 7.0 11.0 0.01 0.10 0.09 88
20260510131515 50 181 8.0 12.0 0.00 0.09 0.08 87
20260510130515 51 181 9.0 16.0 0.00 0.09 0.08 87
20260510125515 51 181 7.0 15.0 0.00 0.09 0.08 87
20260510124515 51 181 6.0 11.0 0.00 0.09 0.08 87
20260510123516 52 181 6.0 11.0 0.00 0.09 0.08 88
20260510122515 52 181 7.0 13.0 0.00 0.09 0.08 87
20260510121515 52 181 7.0 12.0 0.00 0.09 0.08 87
20260510120535 52 181 10.0 16.0 0.00 0.09 0.08 87
20260510115515 53 181 9.0 15.0 0.00 0.09 0.08 82
20260510114518 53 181 8.0 15.0 0.01 0.09 0.08 81
20260510113515 54 181 7.0 12.0 0.06 0.09 0.08 81
20260510112515 54 181 8.0 12.0 0.08 0.09 0.08 80
20260510111516 53 181 11.0 19.0 0.08 0.09 0.08 81
20260510110515 53 181 7.0 12.0 0.08 0.09 0.08 81
20260510105516 53 181 9.0 16.0 0.08 0.09 0.08 81
20260510104515 52 181 9.0 14.0 0.07 0.08 0.07 83
20260510103515 54 181 10.0 17.0 0.02 0.03 0.02 74
20260510102515 55 181 10.0 20.0 0.00 0.01 0.00 65
20260510101536 56 181 9.0 14.0 0.00 0.01 0.00 61
20260510100535 56 181 9.0 16.0 0.00 0.01 0.00 60
20260510095515 56 181 9.0 17.0 0.00 0.01 0.00 60
20260510094515 56 181 10.0 17.0 0.00 0.01 0.00 61
20260510093515 56 181 10.0 18.0 0.00 0.01 0.00 62
20260510092515 56 181 9.0 15.0 0.00 0.01 0.00 63
20260510091536 56 181 11.0 18.0 0.00 0.01 0.00 64
20260510090515 56 181 10.0 17.0 0.00 0.01 0.00 66
20260510085517 55 181 10.0 20.0 0.00 0.01 0.00 69
20260510084515 56 181 10.0 17.0 0.00 0.01 0.00 70
20260510083516 56 181 8.0 16.0 0.00 0.01 0.00 71
20260510082515 56 181 8.0 12.0 0.00 0.01 0.00 72
20260510081535 56 181 9.0 15.0 0.00 0.01 0.00 72
20260510080515 56 181 8.0 15.0 0.00 0.01 0.00 73
20260510075516 55 181 7.0 15.0 0.00 0.01 0.00 75
20260510074515 55 181 6.0 13.0 0.00 0.01 0.00 76
20260510073515 55 181 6.0 14.0 0.00 0.01 0.00 77
20260510072515 55 181 6.0 11.0 0.00 0.01 0.00 77
20260510071516 55 181 6.0 16.0 0.00 0.01 0.00 77
20260510070557 55 181 8.0 16.0 0.00 0.01 0.00 79
20260510065516 55 181 8.0 14.0 0.00 0.01 0.00 82
20260510064515 55 181 7.0 11.0 0.00 0.01 0.00 82
20260510063515 56 181 8.0 13.0 0.00 0.01 0.00 81
20260510062516 57 181 7.0 12.0 0.00 0.01 0.00 79
20260510061516 57 181 8.0 12.0 0.00 0.01 0.00 78
20260510060515 57 181 9.0 13.0 0.00 0.01 0.00 77
20260510055516 58 181 5.0 9.0 0.00 0.01 0.00 78
20260510054515 58 181 7.0 10.0 0.00 0.01 0.00 77
20260510053515 57 181 7.0 10.0 0.00 0.01 0.00 77
20260510052516 57 181 9.0 15.0 0.00 0.01 0.00 78
20260510051515 57 181 6.0 10.0 0.00 0.01 0.00 79
20260510050515 57 181 6.0 10.0 0.00 0.01 0.00 78
20260510045535 57 181 7.0 10.0 0.00 0.01 0.00 76
20260510044516 58 181 7.0 11.0 0.00 0.01 0.00 74
20260510043515 58 181 5.0 9.0 0.00 0.01 0.00 74
20260510042516 59 181 5.0 8.0 0.00 0.01 0.00 72
20260510041515 61 181 5.0 9.0 0.00 0.01 0.00 68
20260510040515 63 181 5.0 9.0 0.00 0.01 0.00 63
20260510035515 64 181 6.0 10.0 0.00 0.01 0.00 61
20260510034515 64 181 7.0 11.0 0.00 0.01 0.00 60
20260510033536 64 181 6.0 12.0 0.00 0.01 0.00 59
20260510032515 65 181 5.0 12.0 0.00 0.01 0.00 60
20260510031515 65 181 10.0 15.0 0.00 0.01 0.00 57
20260510030515 66 181 9.0 19.0 0.00 0.01 0.00 54
20260510025515 66 181 8.0 15.0 0.00 0.01 0.00 54
20260510024516 67 181 8.0 18.0 0.00 0.01 0.00 54
20260510023515 67 181 8.0 14.0 0.00 0.01 0.00 52
20260510022515 68 181 12.0 18.0 0.00 0.01 0.00 49
20260510021515 68 181 11.0 19.0 0.00 0.01 0.00 52
20260510020516 68 181 9.0 19.0 0.00 0.01 0.00 55
20260510015515 70 181 8.0 15.0 0.00 0.01 0.00 53
20260510014515 72 181 7.0 12.0 0.00 0.01 0.00 47
20260510013515 72 181 8.0 13.0 0.00 0.01 0.00 43
20260510012555 72 181 8.0 13.0 0.00 0.01 0.00 44
20260510011515 73 181 6.0 12.0 0.00 0.01 0.00 43
20260510010515 74 181 8.0 16.0 0.00 0.01 0.00 42
20260510005516 75 181 11.0 23.0 0.00 0.01 0.00 41
20260510004515 75 181 10.0 16.0 0.00 0.01 0.00 39
20260510003535 76 181 9.0 16.0 0.00 0.01 0.00 38
20260510002515 77 181 14.0 22.0 0.00 0.01 0.00 37
20260510001515 78 181 11.0 17.0 0.00 0.01 0.00 36
20260510000537 80 181 11.0 17.0 0.00 0.01 0.00 30
20260509235516 80 181 10.0 17.0 0.01 0.01 0.01 30
20260509234535 81 181 9.0 16.0 0.01 0.01 0.01 28
20260509233515 81 181 8.0 13.0 0.01 0.01 0.01 28
20260509232515 81 181 7.0 12.0 0.01 0.01 0.01 30
20260509231515 79 181 8.0 13.0 0.01 0.01 0.01 34
20260509230515 77 181 3.0 7.0 0.01 0.01 0.01 37
20260509225515 79 181 9.0 13.0 0.00 0.00 0.00 31
20260509224515 81 0.0 0.0 0.00 0.00 0.00 32
20260509223515 82 181 3.0 7.0 0.00 0.00 0.00 27
20260509222515 82 181 1.0 2.0 0.00 0.00 0.00 25
20260509221515 83 181 6.0 10.0 0.00 0.00 0.00 24
20260509220516 83 181 7.0 14.0 0.00 0.00 0.00 23